Hourly Data Report for November 27, 2021

TORONTO CITY
ONTARIO
Current Station Operator: ECCC - MSC

43°40'00.000" N
79°24'00.000" W
112.50 m
6158355
71508
XTO

Download Data

Hourly Data (November 2021)
Hourly Data Report for November 27, 2021
TIME
LST
Temp Definition
°C
Dew Point Definition
°C
Rel Hum Definition
%
Precip. Amount Definition
mm

Wind Dir Definition
10's deg

Wind Spd Definition
km/h
Visibility Definition
km
Stn Press Definition
kPa
Hmdx Definition


Wind Chill Definition


Weather Definition


00:00 -1.0 -6.2 68 0.0       99.98     LegendNANA
01:00 -1.0 -6.1 68 0.0       99.98     LegendNANA
02:00 -1.2 -6.0 70 0.0       100.03     LegendNANA
03:00 -1.4 -6.7 67 0.0       100.07     LegendNANA
04:00 -1.6 -6.6 69 0.0       100.09     LegendNANA
05:00 -2.4 -7.3 69 0.0       100.13     LegendNANA
06:00 -2.6 -7.1 71 0.0       100.17     LegendNANA
07:00 -3.0 -6.8 75 0.0       100.23     LegendNANA
08:00 -2.5 -6.6 74 0.0       100.21     LegendNANA
09:00 -1.6 -6.1 71 0.0       100.24     LegendNANA
10:00 -0.3 -6.8 61 0.0       100.23     LegendNANA
11:00 0.1 -7.3 58 0.0       100.20     LegendNANA
12:00 0.5 -6.3 60 0.0       100.10     LegendNANA
13:00 0.9 -7.2 55 0.0       100.02     LegendNANA
14:00 1.2 -7.2 54 0.0       99.98     LegendNANA
15:00 1.3 -7.6 52 0.0       99.96     LegendNANA
16:00 1.3 -7.3 53 0.0       99.95     LegendNANA
17:00 1.0 -7.3 54 0.0       99.94     LegendNANA
18:00 0.9 -7.4 54 0.0       99.93     LegendNANA
19:00 0.3 -7.0 58 0.0       99.89     LegendNANA
20:00 0.2 -6.8 59 0.0       99.86     LegendNANA
21:00 0.2 -6.5 60 0.0       99.81     LegendNANA
22:00 0.3 -6.3 61 0.0       99.77     LegendNANA
23:00 0.3 -6.6 60 0.0       99.76     LegendNANA

Notes on Data Quality.

Legend

  • E = Estimated
  • M = Missing
  • NA = Not Available*
  • [empty] = Indicates an unobserved value
Date modified: